Simultaneous Nadir Overpasses (SNOs) Predictions

Prediction of SNOs between GOES-15 and TERRA Satellite Orbit:

Table of predicted SNOs for the next 14.0 days since TLE Epoch: 11/25/2023
Index Date Time (GOES-15) GOES-15 Lat,Lon TERRA Lat,Lon Distance(km) Time Diff (sec)
1 11/26/2023 05:43:11 -0.21, 61.40 -0.75, 64.00 296.06 80
2 11/26/2023 18:03:24 0.20, 61.46 -0.32, 59.09 269.42 80
3 11/28/2023 17:44:01 0.20, 61.42 0.55, 63.13 194.11 80
4 11/29/2023 06:04:07 -0.19, 61.33 0.48, 58.24 351.75 80
5 12/01/2023 05:50:03 -0.18, 61.29 -0.37, 62.28 112.29 80
6 12/01/2023 18:10:16 0.17, 61.34 -0.68, 57.37 451.80 80
7 12/03/2023 17:50:52 0.17, 61.30 0.19, 61.40 11.74 80
8 12/05/2023 17:34:07 0.17, 61.26 1.04, 65.45 475.42 80
9 12/06/2023 05:54:12 -0.16, 61.19 -0.03, 60.56 71.34 80
10 12/08/2023 05:40:08 -0.16, 61.15 -0.91, 64.60 392.69 80
11 12/08/2023 18:00:19 0.15, 61.19 -0.17, 59.70 170.43 80
